Zurück zum Katalog

THORAD AGENA D DEB

AktivPO
NORAD 5349·DEBRIS·🇺🇸 United States

Gestartet Apr 8, 1970 von Vandenberg Space Force Base

Loading…

Nächste Überflüge (nächste 24 Stunden)

TLE

AktuellSource: Space-Track

Epoche: Sep 14, 2026, 09:35 UTC

1 05349U 70025KN  26257.39957265  .00003208  00000-0  13572-2 0  9996
2 05349  99.8054 150.0382 0052096 276.8310  82.6940 14.25621368762626

Verfolge THORAD AGENA D DEB in Echtzeit mit AllMySat

Download on the App Store